If you wish to contribute or participate in the discussions about articles you are invited to join SKYbrary as a registered user

 Actions

Arcata Airport

From SKYbrary Wiki

KACV
Airport
ICAO: KACV
Summary
Name Arcata Airport
Region North America
Territory
Location Arcata, California, California
Serving Humboldt County
Coordinates 40° 58' 15.2177", -124° 6' 23.4932"
Close to North Pacific Ocean
Runways
Designator Length Width Surface ROPS
1/19 1371 m4,498.032 ft 46 m150.919 ft ASP yes/yes
14/32 1829 m6,000.656 ft 46 m150.919 ft ASP yes/yes


METAR
Observation KACV 250053Z AUTO 31007KT 10SM OVC028 15/12 A3005 RMK AO2 SLP179 T01500117
Station Arcata / Eureka, Arcata Airport
Date/Time 25 May 2018 00:53:00
Wind direction 310°
Wind speed 07 kts
Lowest cloud amount overcast
Temperature 15°C
Dew point 11.7°C
Humidity 80%
QNH hPa
Weather condition n/a

WX
Tag(s) Fog

Arcata Airport, also known as Arcata/Eureka Airport, is an airport located 24 km12.959 nm
24,000 m
78,740.158 ft
north of Eureka in the unincorporated town of McKinleyville, California. This regional airport serves Humboldt County, including the two primary regional cities that compose its name: Arcata and Eureka.

Climatology

Dry-summer subtropical ”Mediterranean" climate (Köppen climate classification Csb) - characterized by warm, dry summers and mild winters.

Maps

Terrain

Loading map...

Airport Layout

Loading map...


Accidents & Serious Incidents at or in vicinity of KACV

None on SKYbrary